Location: Newark
(44.3290°N, 23.7757°E)
Time: 14:37:48
(UTC+00:00)

ISS - Pass Details

Date: 28 May 2023
Orbit: 414 x 422 km, 51.6° (Epoch: 21 September)

Event Time Altitude Azimuth Distance (km) Brightness Sun altitude
Rises 19:05:02 0° 299° (WNW) 2,424 1.9 -10.2°
Reaches altitude 10° 19:07:10 10° 296° (WNW) 1,557 0.4 -10.5°
Maximum altitude 19:10:38 62° 215° (SW) 501 -3.5 -10.9°
Enters shadow 19:13:06 18° 138° (SE) 1,161 -2.2 -11.3°
